Rechercher aéroport 
image banner adimage banner ad
image banner ad

DAUG - Ghardaia / Noumerat-Moufdi Zakaria

Situé à Ghardaia, Algeria

ICAO - DAUG, IATA - GHA

Données fournies par Airmate  

Information générale

Coordonnées: N32°22'54" E3°47'58"
Élévation : 1512 feet MSL.
 
Voir autres Aéroports à Ghardaïa Province

Données opérationnelles

Accessible au public
Heure actuelle UTC:
Heure actuelle locale:
Météo
METAR: DAUG 291100Z 06008KT 350V090 CAVOK 21/M00 Q1027
TAF: TAF DAUG 290500Z 2906/3006 04008KT CAVOK
Voir NOTAMs / SUP AIP / TFR affectant cet aéroport [VIEW]
Fréquences de communication: [VIEW]

Pistes:

Identifiant RWYQFULongueur (ft)Largeur (ft)SurfaceLDA (ft)
18183°7874148
367874148
12122°10171197ASP
30302°10171197

Coordonnées de l'aéroport

Adresse: Ghardaia Algeria

Vue satellite de DAUG